Time,TemperatureF,DewpointF,PressureIn,WindDirection,WindDirectionDegrees,WindSpeedMPH,WindSpeedGustMPH,Humidity,HourlyPrecipIn,Conditions,Clouds,dailyrainin,SoftwareType,DateUTC
2013-04-03 00:03:00,33.8,15.0,29.87,NNE,12,1.0,-999.0,47,-99.99,,,0.00,weatherlink.com 1.10,2013-04-03 04:03:00,
2013-04-03 00:18:00,33.7,16.0,29.87,WNW,291,3.0,-999.0,48,-99.99,,,0.00,weatherlink.com 1.10,2013-04-03 04:18:00,
2013-04-03 00:33:00,33.6,16.0,29.87,NW,312,0.0,-999.0,49,-99.99,,,0.00,weatherlink.com 1.10,2013-04-03 04:33:00,
2013-04-03 00:48:00,33.5,16.0,29.87,NW,312,2.0,-999.0,49,-99.99,,,0.00,weatherlink.com 1.10,2013-04-03 04:48:00,
2013-04-03 01:03:00,33.4,16.0,29.88,North,349,5.0,-999.0,49,-99.99,,,0.00,weatherlink.com 1.10,2013-04-03 05:03:00,
2013-04-03 01:18:00,33.3,16.0,29.88,NW,306,2.0,-999.0,50,-99.99,,,0.00,weatherlink.com 1.10,2013-04-03 05:18:00,
2013-04-03 01:33:00,33.2,17.0,29.88,NW,320,4.0,-999.0,51,-99.99,,,0.00,weatherlink.com 1.10,2013-04-03 05:33:00,
2013-04-03 01:48:00,33.2,17.0,29.88,WNW,284,4.0,-999.0,51,-99.99,,,0.00,weatherlink.com 1.10,2013-04-03 05:48:00,
2013-04-03 02:03:00,33.1,17.0,29.88,West,267,3.0,-999.0,51,-99.99,,,0.00,weatherlink.com 1.10,2013-04-03 06:03:00,
2013-04-03 02:18:00,32.9,16.0,29.88,NNW,329,2.0,-999.0,51,-99.99,,,0.00,weatherlink.com 1.10,2013-04-03 06:18:00,
2013-04-03 02:33:00,32.8,17.0,29.88,WNW,288,0.0,-999.0,52,-99.99,,,0.00,weatherlink.com 1.10,2013-04-03 06:33:00,
2013-04-03 02:48:00,32.7,17.0,29.88,NNE,26,1.0,-999.0,52,-99.99,,,0.00,weatherlink.com 1.10,2013-04-03 06:48:00,
2013-04-03 03:03:00,32.4,16.0,29.89,WNW,282,0.0,-999.0,52,-99.99,,,0.00,weatherlink.com 1.10,2013-04-03 07:03:00,
2013-04-03 03:18:00,32.2,16.0,29.88,NW,315,0.0,-999.0,52,-99.99,,,0.00,weatherlink.com 1.10,2013-04-03 07:18:00,
2013-04-03 03:33:00,32.1,16.0,29.88,West,273,5.0,-999.0,51,-99.99,,,0.00,weatherlink.com 1.10,2013-04-03 07:33:00,
2013-04-03 03:48:00,32.2,16.0,29.88,NNW,337,4.0,-999.0,51,-99.99,,,0.00,weatherlink.com 1.10,2013-04-03 07:48:00,
2013-04-03 04:03:00,32.1,16.0,29.88,NW,323,3.0,-999.0,51,-99.99,,,0.00,weatherlink.com 1.10,2013-04-03 08:03:00,
2013-04-03 04:19:00,32.1,15.0,29.88,NW,309,3.0,-999.0,50,-99.99,,,0.00,weatherlink.com 1.10,2013-04-03 08:19:00,
2013-04-03 04:34:00,31.9,16.0,29.89,NNW,327,1.0,-999.0,52,-99.99,,,0.00,weatherlink.com 1.10,2013-04-03 08:34:00,
2013-04-03 04:49:00,31.7,16.0,29.88,NNW,334,8.0,-999.0,53,-99.99,,,0.00,weatherlink.com 1.10,2013-04-03 08:49:00,
2013-04-03 05:04:00,31.5,18.0,29.89,NNW,340,0.0,-999.0,58,-99.99,,,0.00,weatherlink.com 1.10,2013-04-03 09:04:00,
2013-04-03 05:19:00,31.3,18.0,29.89,NNW,332,4.0,-999.0,58,-99.99,,,0.00,weatherlink.com 1.10,2013-04-03 09:19:00,
2013-04-03 05:34:00,31.0,17.0,29.89,West,275,0.0,-999.0,56,-99.99,,,0.00,weatherlink.com 1.10,2013-04-03 09:34:00,
2013-04-03 05:49:00,30.8,17.0,29.90,NW,313,1.0,-999.0,57,-99.99,,,0.00,weatherlink.com 1.10,2013-04-03 09:49:00,
2013-04-03 06:04:00,30.9,16.0,29.90,WSW,252,4.0,-999.0,54,-99.99,,,0.00,weatherlink.com 1.10,2013-04-03 10:04:00,
2013-04-03 06:19:00,30.7,17.0,29.91,NW,307,0.0,-999.0,56,-99.99,,,0.00,weatherlink.com 1.10,2013-04-03 10:19:00,
2013-04-03 06:34:00,30.5,16.0,29.91,WNW,300,0.0,-999.0,54,-99.99,,,0.00,weatherlink.com 1.10,2013-04-03 10:34:00,
2013-04-03 06:49:00,30.7,15.0,29.92,West,278,7.0,-999.0,52,-99.99,,,0.00,weatherlink.com 1.10,2013-04-03 10:49:00,
2013-04-03 07:04:00,31.0,15.0,29.93,NW,313,4.0,-999.0,51,-99.99,,,0.00,weatherlink.com 1.10,2013-04-03 11:04:00,
2013-04-03 07:19:00,31.5,15.0,29.93,WSW,252,1.0,-999.0,50,-99.99,,,0.00,weatherlink.com 1.10,2013-04-03 11:19:00,
2013-04-03 07:34:00,31.8,14.0,29.93,WSW,240,4.0,-999.0,49,-99.99,,,0.00,weatherlink.com 1.10,2013-04-03 11:34:00,
2013-04-03 07:49:00,32.1,14.0,29.93,West,275,3.0,-999.0,48,-99.99,,,0.00,weatherlink.com 1.10,2013-04-03 11:49:00,
2013-04-03 08:04:00,32.5,14.0,29.93,WNW,294,10.0,-999.0,47,-99.99,,,0.00,weatherlink.com 1.10,2013-04-03 12:04:00,
2013-04-03 08:19:00,32.8,13.0,29.93,WSW,242,3.0,-999.0,45,-99.99,,,0.00,weatherlink.com 1.10,2013-04-03 12:19:00,
2013-04-03 08:34:00,33.3,13.0,29.93,NNW,327,4.0,-999.0,44,-99.99,,,0.00,weatherlink.com 1.10,2013-04-03 12:34:00,
2013-04-03 08:49:00,33.4,13.0,29.93,NNW,329,5.0,-999.0,43,-99.99,,,0.00,weatherlink.com 1.10,2013-04-03 12:49:00,
2013-04-03 09:04:00,34.0,13.0,29.93,WNW,297,0.0,-999.0,42,-99.99,,,0.00,weatherlink.com 1.10,2013-04-03 13:04:00,
2013-04-03 09:19:00,34.5,13.0,29.93,NW,317,9.0,-999.0,41,-99.99,,,0.00,weatherlink.com 1.10,2013-04-03 13:19:00,
2013-04-03 09:34:00,35.5,13.0,29.92,WNW,301,9.0,-999.0,40,-99.99,,,0.00,weatherlink.com 1.10,2013-04-03 13:34:00,
2013-04-03 09:49:00,36.1,13.0,29.92,NNW,333,8.0,-999.0,38,-99.99,,,0.00,weatherlink.com 1.10,2013-04-03 13:49:00,
2013-04-03 10:04:00,36.4,13.0,29.91,WNW,297,15.0,-999.0,39,-99.99,,,0.00,weatherlink.com 1.10,2013-04-03 14:04:00,
2013-04-03 10:19:00,37.3,12.0,29.90,NNW,338,13.0,-999.0,36,-99.99,,,0.00,weatherlink.com 1.10,2013-04-03 14:19:00,
2013-04-03 10:34:00,37.4,13.0,29.91,West,272,2.0,-999.0,36,-99.99,,,0.00,weatherlink.com 1.10,2013-04-03 14:34:00,
2013-04-03 10:49:00,37.9,12.0,29.91,NNW,327,6.0,-999.0,34,-99.99,,,0.00,weatherlink.com 1.10,2013-04-03 14:49:00,
2013-04-03 11:04:00,38.8,12.0,29.90,WNW,292,5.0,-999.0,33,-99.99,,,0.00,weatherlink.com 1.10,2013-04-03 15:04:00,
2013-04-03 11:19:00,39.3,10.0,29.90,NW,307,4.0,-999.0,30,-99.99,,,0.00,weatherlink.com 1.10,2013-04-03 15:19:00,
2013-04-03 11:34:00,39.9,11.0,29.90,NW,315,6.0,-999.0,30,-99.99,,,0.00,weatherlink.com 1.10,2013-04-03 15:34:00,
2013-04-03 11:49:00,40.9,10.0,29.90,NW,313,5.0,-999.0,28,-99.99,,,0.00,weatherlink.com 1.10,2013-04-03 15:49:00,
2013-04-03 12:04:00,41.9,11.0,29.89,NW,310,6.0,-999.0,28,-99.99,,,0.00,weatherlink.com 1.10,2013-04-03 16:04:00,
2013-04-03 12:34:00,43.1,11.0,29.89,NW,321,7.0,-999.0,27,-99.99,,,0.00,weatherlink.com 1.10,2013-04-03 16:34:00,
2013-04-03 12:49:00,42.9,11.0,29.89,WNW,296,15.0,-999.0,27,-99.99,,,0.00,weatherlink.com 1.10,2013-04-03 16:49:00,
2013-04-03 13:19:00,44.4,12.0,29.89,SSW,204,3.0,-999.0,27,-99.99,,,0.00,weatherlink.com 1.10,2013-04-03 17:19:00,
2013-04-03 13:34:00,44.3,12.0,29.89,WNW,290,12.0,-999.0,27,-99.99,,,0.00,weatherlink.com 1.10,2013-04-03 17:34:00,
2013-04-03 13:49:00,44.6,11.0,29.89,NW,312,3.0,-999.0,26,-99.99,,,0.00,weatherlink.com 1.10,2013-04-03 17:49:00,
2013-04-03 14:04:00,45.3,12.0,29.89,NW,304,3.0,-999.0,26,-99.99,,,0.00,weatherlink.com 1.10,2013-04-03 18:04:00,
2013-04-03 14:19:00,44.6,12.0,29.89,NW,317,2.0,-999.0,27,-99.99,,,0.00,weatherlink.com 1.10,2013-04-03 18:19:00,
2013-04-03 14:34:00,45.2,11.0,29.90,South,189,2.0,-999.0,25,-99.99,,,0.00,weatherlink.com 1.10,2013-04-03 18:34:00,
2013-04-03 14:49:00,46.0,12.0,29.89,NW,319,9.0,-999.0,25,-99.99,,,0.00,weatherlink.com 1.10,2013-04-03 18:49:00,
2013-04-03 15:04:00,45.9,12.0,29.88,NW,321,9.0,-999.0,25,-99.99,,,0.00,weatherlink.com 1.10,2013-04-03 19:04:00,
2013-04-03 15:19:00,46.7,11.0,29.89,WSW,257,2.0,-999.0,24,-99.99,,,0.00,weatherlink.com 1.10,2013-04-03 19:19:00,
2013-04-03 15:49:00,47.3,12.0,29.88,SSW,196,3.0,-999.0,24,-99.99,,,0.00,weatherlink.com 1.10,2013-04-03 19:49:00,
2013-04-03 16:05:00,46.7,10.0,29.88,NW,319,2.0,-999.0,22,-99.99,,,0.00,weatherlink.com 1.10,2013-04-03 20:05:00,
2013-04-03 16:19:00,46.5,10.0,29.87,NW,322,3.0,-999.0,23,-99.99,,,0.00,weatherlink.com 1.10,2013-04-03 20:19:00,
2013-04-03 16:49:00,46.4,9.0,29.88,WSW,254,5.0,-999.0,22,-99.99,,,0.00,weatherlink.com 1.10,2013-04-03 20:49:00,
2013-04-03 17:04:00,46.5,10.0,29.88,WNW,288,4.0,-999.0,23,-99.99,,,0.00,weatherlink.com 1.10,2013-04-03 21:04:00,
2013-04-03 17:19:00,46.4,11.0,29.89,West,279,5.0,-999.0,24,-99.99,,,0.00,weatherlink.com 1.10,2013-04-03 21:19:00,
2013-04-03 17:34:00,46.3,12.0,29.89,North,349,5.0,-999.0,25,-99.99,,,0.00,weatherlink.com 1.10,2013-04-03 21:34:00,
2013-04-03 17:49:00,45.9,12.0,29.89,NW,312,1.0,-999.0,25,-99.99,,,0.00,weatherlink.com 1.10,2013-04-03 21:49:00,
2013-04-03 18:04:00,45.3,11.0,29.90,NW,305,4.0,-999.0,25,-99.99,,,0.00,weatherlink.com 1.10,2013-04-03 22:04:00,
2013-04-03 18:19:00,44.7,12.0,29.91,NNW,346,4.0,-999.0,26,-99.99,,,0.00,weatherlink.com 1.10,2013-04-03 22:19:00,
2013-04-03 18:34:00,44.0,13.0,29.91,NW,325,3.0,-999.0,28,-99.99,,,0.00,weatherlink.com 1.10,2013-04-03 22:34:00,
2013-04-03 18:49:00,43.4,14.0,29.93,West,269,0.0,-999.0,30,-99.99,,,0.00,weatherlink.com 1.10,2013-04-03 22:49:00,
2013-04-03 19:04:00,42.8,12.0,29.94,NW,321,6.0,-999.0,29,-99.99,,,0.00,weatherlink.com 1.10,2013-04-03 23:04:00,
2013-04-03 19:34:00,41.5,13.0,29.96,WSW,250,1.0,-999.0,31,-99.99,,,0.00,weatherlink.com 1.10,2013-04-03 23:34:00,
2013-04-03 19:49:00,41.0,13.0,29.97,NW,325,6.0,-999.0,32,-99.99,,,0.00,weatherlink.com 1.10,2013-04-03 23:49:00,
2013-04-03 20:04:00,40.5,13.0,29.98,NW,313,10.0,-999.0,33,-99.99,,,0.00,weatherlink.com 1.10,2013-04-04 00:04:00,
2013-04-03 20:19:00,40.1,14.0,29.99,NW,317,5.0,-999.0,34,-99.99,,,0.00,weatherlink.com 1.10,2013-04-04 00:19:00,
2013-04-03 20:34:00,39.5,14.0,30.00,NNW,344,5.0,-999.0,35,-99.99,,,0.00,weatherlink.com 1.10,2013-04-04 00:34:00,
2013-04-03 20:49:00,39.1,14.0,30.01,NW,321,4.0,-999.0,36,-99.99,,,0.00,weatherlink.com 1.10,2013-04-04 00:49:00,
2013-04-03 21:04:00,38.6,14.0,30.02,North,351,5.0,-999.0,37,-99.99,,,0.00,weatherlink.com 1.10,2013-04-04 01:04:00,
2013-04-03 21:34:00,37.8,15.0,30.04,WNW,300,7.0,-999.0,39,-99.99,,,0.00,weatherlink.com 1.10,2013-04-04 01:34:00,
2013-04-03 21:49:00,37.4,15.0,30.04,NW,325,0.0,-999.0,40,-99.99,,,0.00,weatherlink.com 1.10,2013-04-04 01:49:00,
2013-04-03 22:04:00,37.0,15.0,30.05,NW,306,5.0,-999.0,41,-99.99,,,0.00,weatherlink.com 1.10,2013-04-04 02:04:00,
2013-04-03 22:34:00,36.3,16.0,30.07,WNW,299,0.0,-999.0,43,-99.99,,,0.00,weatherlink.com 1.10,2013-04-04 02:34:00,
2013-04-03 23:04:00,35.7,16.0,30.08,NNW,332,0.0,-999.0,45,-99.99,,,0.00,weatherlink.com 1.10,2013-04-04 03:04:00,
2013-04-03 23:34:00,34.9,16.0,30.09,NNW,329,2.0,-999.0,47,-99.99,,,0.00,weatherlink.com 1.10,2013-04-04 03:34:00,
2013-04-03 23:49:00,34.6,16.0,30.10,North,351,5.0,-999.0,47,-99.99,,,0.00,weatherlink.com 1.10,2013-04-04 03:49:00,